Location: Marcé
(47.5801°N, 0.3280°W)
Time: 17:53:53
(UTC+01:00)

Tiros 1 - Pass Details

Date: 02 December 2021
Orbit: 629 x 664 km, 48.4° (Epoch: 26 January)

Event Time Altitude Azimuth Distance (km) Brightness Sun altitude
Rises 01:16:10 0° 286° (WNW) 2,960 - -63.9°
Reaches altitude 10° 01:18:31 10° 282° (WNW) 2,054 - -63.8°
Maximum altitude 01:23:10 58° 204° (SSW) 762 - -63.6°
Drops below altitude 10° 01:27:51 10° 126° (SE) 2,067 - -63.3°
Sets 01:30:14 0° 122° (ESE) 2,981 - -63.2°
